Theta_e
307 307 307 307 306 305 304 303 303 302 302 303 303 302 302 302 299 291 286 286 283 276 279 282 281 277 276 274 270 273 274 274 269 267 263 262 260 268 267 270 274 269 268 266 262 265 271 279 280 278 281 282 283 282
307 307 307 307 306 304 303 302 302 301 301 301 302 301 301 302 300 293 285 288 287 280 281 286 286 284 282 280 278 278 275 270 277 272 269 265 263 263 263 263 276 268 274 272 273 273 279 281 282 283 282 281 281 282
306 306 306 306 305 304 302 301 301 301 300 300 301 301 301 300 300 293 285 285 282 281 283 280 278 282 285 283 285 275 279 282 280 279 269 267 265 271 262 266 271 275 277 274 276 277 278 280 282 281 282 282 283 283
304 305 306 306 304 304 302 301 300 301 300 300 301 300 300 300 299 293 287 285 281 275 272 278 286 280 284 284 285 284 283 283 283 275 265 265 264 275 270 272 272 274 277 272 273 279 278 280 282 282 282 282 281 281
303 304 305 305 304 303 302 301 300 300 299 300 301 300 299 298 297 291 288 287 285 280 270 278 282 281 286 284 284 284 283 279 271 270 265 268 273 273 272 273 270 275 275 275 273 279 280 280 281 282 281 280 280 278
302 303 304 304 304 303 302 301 300 299 299 300 301 300 299 298 292 283 277 284 288 283 273 264 281 282 285 286 284 283 282 281 279 268 265 268 277 274 269 266 274 276 277 279 277 278 279 279 277 276 277 276 274 275
302 302 303 304 304 303 302 302 300 299 299 300 301 299 297 295 286 278 275 283 290 282 272 271 269 281 283 283 284 282 280 279 268 272 264 271 272 270 272 268 275 274 277 277 276 279 277 276 278 278 276 274 271 269
301 302 302 303 303 303 302 301 300 299 299 299 300 297 296 295 289 279 288 290 284 275 270 266 269 274 281 280 277 281 276 266 272 273 273 268 266 272 270 271 270 269 270 272 274 270 275 275 272 269 268 268 267 268
301 301 301 302 302 302 302 301 300 299 299 300 297 294 284 280 272 281 291 287 280 276 266 259 264 265 277 276 274 273 275 265 271 269 266 274 261 269 271 270 266 270 273 275 262 263 265 272 271 267 266 264 266 264
300 300 301 301 301 302 301 300 300 299 299 296 285 276 270 279 288 285 276 272 272 267 265 263 258 269 275 270 268 269 274 262 260 265 270 272 269 272 268 268 267 267 267 268 268 266 263 263 266 265 267 266 268 266
300 300 300 300 300 300 300 300 299 299 294 283 271 269 276 283 274 265 266 266 262 264 266 260 263 273 276 267 264 272 265 265 264 263 264 258 262 268 265 262 267 266 268 270 264 267 269 271 270 266 261 259 260 262
300 300 300 300 300 300 299 299 299 289 285 282 277 276 270 266 263 265 259 259 263 265 265 267 267 268 267 268 267 273 265 269 260 260 265 262 267 267 262 263 261 261 264 266 261 264 267 266 269 268 266 263 261 259
300 300 299 300 300 300 299 299 298 290 284 276 271 267 268 262 261 263 262 262 261 262 268 266 265 268 267 269 268 265 262 262 258 264 261 265 266 264 262 258 258 254 256 261 260 258 260 258 260 265 263 257 261 258
300 300 299 299 300 300 299 299 293 288 279 272 270 267 267 260 263 265 268 270 268 266 269 265 265 265 261 262 264 263 259 259 257 256 263 266 266 264 261 258 259 261 262 266 266 260 262 264 262 256 262 261 260 259
299 299 299 299 299 299 299 296 293 283 274 270 266 266 262 264 259 258 261 267 265 275 269 265 263 267 257 263 259 258 259 259 260 264 266 267 264 262 261 260 261 260 262 261 259 262 262 261 261 262 256 257 258 258
299 299 296 299 299 299 298 294 287 281 269 266 260 263 258 264 261 260 260 266 268 275 267 266 260 260 259 261 260 262 261 262 267 265 267 261 262 261 262 263 264 262 265 264 264 262 263 262 263 262 258 257 258 259
298 290 298 299 299 298 295 285 283 279 278 266 264 259 264 265 270 267 267 271 275 274 267 265 264 265 262 257 259 262 265 268 268 266 261 263 266 266 263 262 262 262 262 264 263 264 266 262 259 257 259 258 258 257
293 295 298 298 297 293 287 284 281 278 275 268 267 266 263 265 268 268 269 275 275 269 268 268 265 259 264 265 265 269 269 267 267 269 268 264 263 262 264 267 263 265 264 263 263 261 260 261 261 264 260 259 257 253
294 296 297 298 293 285 282 281 282 275 271 266 263 264 269 269 268 271 274 277 270 271 270 265 264 265 268 269 272 270 269 273 277 274 269 264 266 268 265 261 261 261 263 261 261 265 266 266 265 261 261 259 260 258
297 297 297 297 292 284 279 279 281 275 271 270 267 267 270 270 271 274 276 273 273 272 269 267 269 271 273 275 277 280 279 278 276 272 272 268 262 263 267 267 268 266 264 261 260 262 261 260 261 262 262 261 261 260
295 295 296 292 286 284 280 279 278 276 272 272 268 271 267 270 273 273 274 274 273 269 269 271 273 275 276 278 278 279 279 278 278 278 274 272 268 268 264 260 260 261 264 263 265 264 265 266 264 262 262 262 262 261
290 296 289 288 283 282 280 279 277 272 274 271 270 268 269 268 269 272 276 272 269 270 271 272 274 276 278 280 281 281 281 278 274 269 269 269 271 267 265 266 264 267 267 268 267 267 265 264 263 262 262 260 260 259
294 289 285 284 280 279 273 279 272 270 268 270 272 270 266 267 270 274 271 269 268 270 273 273 276 279 280 280 279 276 280 281 276 275 273 272 271 266 265 264 267 268 268 267 265 266 265 263 262 261 259 259 259 259
290 284 281 279 278 271 273 270 271 269 270 272 273 268 266 263 264 266 267 266 269 267 271 274 276 277 276 274 276 280 276 279 275 271 270 273 271 269 262 263 262 264 265 262 263 261 260 260 261 260 260 259 259 258
280 279 280 274 273 268 264 266 265 266 265 269 264 263 263 262 262 262 264 267 265 269 274 277 278 278 279 282 272 271 266 269 274 276 271 272 265 260 261 258 258 259 259 261 258 258 257 259 259 259 259 259 258 258
275 278 275 275 271 272 265 263 265 263 264 262 259 258 258 263 263 267 267 270 268 268 267 268 272 270 269 264 264 263 263 260 264 270 267 264 265 267 265 263 262 264 259 259 260 258 257 257 258 258 258 258 259 257
274 274 276 270 271 268 268 267 266 270 262 260 259 261 264 264 265 265 257 256 257 256 259 259 260 262 261 258 258 256 255 257 260 261 258 258 259 258 262 263 263 262 258 259 259 259 258 258 258 258 258 257 257 257
278 278 276 275 271 266 268 270 270 270 265 261 264 262 267 268 266 253 254 256 256 257 259 258 257 256 256 256 255 255 255 255 257 257 257 258 257 257 256 255 256 261 255 256 257 257 259 260 259 258 258 256 255 256
279 281 280 274 269 265 264 268 265 257 257 269 265 260 253 250 251 252 254 255 256 258 258 255 254 253 254 255 255 255 256 257 259 259 259 259 258 258 253 253 253 254 256 258 264 261 260 260 260 259 258 257 255 255
279 282 277 273 262 256 249 252 252 251 253 252 251 252 251 251 253 255 254 255 255 256 255 252 253 253 253 253 253 255 255 254 254 255 256 256 254 251 250 251 253 255 258 259 260 262 264 260 259 256 255 255 254 254
270 267 259 256 253 252 253 255 253 253 253 253 253 251 250 251 253 254 254 254 255 255 254 253 252 252 252 252 251 252 253 253 253 253 252 250 249 250 251 253 255 256 257 257 257 257 257 257 256 256 255 255 255 254
260 258 258 254 254 257 255 253 251 252 252 252 251 252 252 252 250 252 254 254 254 253 253 252 251 251 251 252 253 252 256 252 251 252 251 251 251 252 254 255 257 257 257 256 256 256 257 257 257 256 256 255 254 252
261 260 258 257 257 256 255 257 255 253 251 251 251 251 250 251 249 251 255 255 254 253 253 253 253 253 254 253 255 255 256 256 257 261 260 259 258 258 257 257 257 257 257 257 256 256 256 255 255 255 254 253 251 250
Wind_Speed
23 22 21 20 19 16 15 13 10 6 5 6 6 6 4 9 11 6 1 2 5 4 2 3 3 4 3 3 5 4 5 5 4 5 4 3 3 4 1 3 3 4 5 3 3 3 5 1 1 5 3 4 7 6
22 24 23 22 20 19 16 14 12 9 6 7 5 6 6 0 11 8 4 2 2 7 3 2 4 2 2 3 5 1 4 4 4 5 2 4 2 2 1 3 2 2 5 4 7 5 2 2 3 2 2 5 4 7
23 22 24 23 22 20 18 15 13 10 8 7 5 6 6 6 3 5 4 2 5 5 3 4 3 5 4 4 2 5 2 2 1 2 4 3 3 4 4 6 2 4 3 2 3 3 6 5 1 2 4 5 6 5
23 22 25 24 23 20 18 16 14 12 9 7 8 6 6 5 3 5 4 2 5 4 6 1 2 3 6 4 2 2 4 4 5 3 3 3 3 2 3 2 3 5 6 6 4 6 2 4 5 6 6 7 7 5
26 23 23 25 24 22 20 18 15 14 11 8 10 10 11 14 16 9 4 3 3 6 5 2 1 3 5 4 7 6 5 4 3 3 3 3 1 2 2 1 5 7 9 7 7 7 6 4 8 8 9 8 8 8
27 25 24 24 24 24 22 19 17 13 14 9 13 14 9 6 4 5 5 4 3 3 7 3 2 3 5 4 8 8 5 3 2 4 3 3 2 3 2 4 8 6 4 5 5 4 2 4 5 3 7 6 4 6
28 27 26 25 25 24 24 22 20 16 15 13 14 13 9 9 5 5 6 3 3 3 6 4 2 2 2 2 2 2 3 3 3 2 1 1 0 3 2 6 6 3 4 3 2 8 5 1 5 6 6 7 6 6
30 28 27 25 26 25 25 23 22 18 16 13 17 18 17 17 10 5 3 6 3 6 5 5 2 2 3 1 1 2 1 3 4 1 2 1 3 0 8 9 5 3 1 1 4 3 3 7 7 6 5 5 5 7
32 29 28 27 25 26 25 25 23 20 18 20 21 17 6 5 3 2 6 5 3 5 5 4 7 5 1 1 1 3 2 3 3 1 2 1 3 9 11 8 6 9 8 9 4 5 4 8 10 8 7 4 6 3
32 31 29 28 26 26 27 25 24 23 23 20 8 5 2 1 1 5 8 5 6 5 5 3 1 4 3 0 2 3 1 2 0 5 2 3 7 9 8 7 5 6 6 10 7 2 2 2 8 9 10 7 7 9
33 32 31 29 28 28 28 28 26 26 17 3 3 3 2 4 4 5 2 4 3 3 1 3 4 6 1 4 4 1 3 1 0 5 4 3 7 7 4 5 5 5 9 9 2 2 4 6 11 9 5 5 6 8
34 34 33 31 30 30 32 31 31 9 4 8 8 6 3 5 5 6 2 2 2 7 2 5 4 4 1 2 5 1 4 2 5 1 0 5 9 6 3 4 3 6 6 6 4 4 6 6 9 9 8 9 8 6
36 35 34 33 33 33 34 33 29 28 14 5 6 5 4 2 4 9 9 5 3 5 6 4 2 3 2 3 4 3 4 6 1 1 6 9 5 5 5 2 2 0 4 4 3 2 5 4 4 7 8 4 8 7
38 36 36 35 35 35 35 35 35 17 8 4 7 4 7 3 7 9 8 6 4 5 9 5 4 4 1 5 3 6 2 3 2 1 10 5 6 5 3 3 4 5 8 8 8 5 6 8 8 5 6 8 9 8
39 37 37 36 37 37 36 34 29 5 5 5 5 8 7 3 2 2 2 4 2 10 7 5 4 3 2 5 2 5 3 4 8 8 6 5 4 3 4 5 6 5 6 4 4 6 7 7 7 6 4 4 5 5
39 32 25 35 39 39 38 31 7 3 4 5 1 3 1 3 2 2 1 3 3 10 4 4 5 5 2 6 5 9 8 9 7 6 5 2 3 3 4 5 5 4 6 6 6 6 6 8 8 5 4 4 5 5
41 6 37 40 40 40 39 8 4 5 6 5 4 1 4 1 4 4 4 4 8 7 4 5 7 8 5 4 3 7 9 6 5 4 3 5 5 4 5 4 5 6 6 6 4 7 7 4 5 4 7 7 6 5
16 18 43 43 34 29 8 2 6 8 9 3 4 4 3 1 4 3 3 9 8 4 4 6 7 4 8 8 6 6 6 3 3 3 3 4 5 4 5 6 5 6 6 6 6 4 5 7 8 9 5 6 5 4
24 26 47 47 24 9 6 5 5 6 3 4 2 1 4 3 1 3 5 10 1 3 6 2 4 5 6 5 4 3 3 4 4 4 3 3 5 6 5 3 2 3 5 5 6 7 7 10 6 4 5 6 5 5
37 45 50 43 30 5 6 3 4 5 6 4 4 3 3 3 5 4 9 4 3 3 2 4 6 5 5 4 5 5 5 4 4 2 3 4 2 3 5 5 5 2 3 3 2 3 2 1 3 5 6 6 6 6
27 33 45 28 6 4 4 6 4 5 6 4 4 5 4 2 5 4 6 4 2 4 4 5 5 3 3 2 1 2 1 7 5 5 5 2 2 4 1 1 3 3 3 3 4 4 6 7 4 6 6 6 5 3
7 43 13 8 4 4 4 1 7 3 4 5 6 3 5 4 4 5 7 3 5 4 5 4 3 4 2 4 4 5 3 5 5 4 4 5 2 1 3 4 4 4 5 5 5 5 5 4 5 6 6 4 4 4
35 12 8 5 7 5 4 5 6 2 7 7 5 6 2 3 3 5 4 4 4 4 4 4 5 4 5 3 1 2 2 6 4 4 3 4 2 2 2 2 4 4 4 4 3 4 4 5 6 5 5 6 6 5
15 8 8 8 6 7 6 4 4 5 4 5 8 6 4 4 1 2 5 4 4 1 4 7 4 1 2 2 3 5 3 3 3 1 2 4 3 3 2 2 2 2 1 2 2 2 3 3 6 5 6 7 6 6
9 9 10 7 5 9 7 6 4 5 5 3 6 4 5 3 3 4 4 3 2 4 7 7 6 8 9 7 2 2 4 1 3 4 2 3 3 2 1 1 1 2 1 3 2 3 3 4 4 5 6 7 8 8
7 6 9 10 6 12 10 9 8 8 7 5 3 3 2 4 4 7 6 4 3 1 1 0 2 2 2 3 2 1 2 3 2 1 1 0 2 3 3 3 1 3 4 2 4 5 6 4 5 7 6 6 8 8
8 7 4 2 8 8 8 7 3 7 6 8 7 7 5 6 8 4 2 4 3 4 4 3 2 2 2 2 2 2 2 2 2 2 2 3 3 3 1 2 3 3 2 4 4 6 7 7 6 6 6 5 4 6
6 8 19 14 8 3 9 6 6 6 7 6 9 8 14 11 6 2 3 3 3 3 3 4 4 3 3 3 1 1 3 3 3 3 3 4 4 4 4 3 2 3 2 3 4 4 5 6 7 8 8 7 5 3
8 12 16 19 9 7 4 5 5 2 1 8 7 5 5 3 2 3 3 4 4 1 3 3 3 2 3 3 4 3 3 3 2 3 2 1 2 2 3 3 3 3 3 4 7 7 8 7 8 8 9 7 5 4
17 14 13 12 8 4 2 2 3 3 4 5 6 6 4 3 3 3 4 4 5 5 3 1 2 3 2 2 2 5 5 4 4 2 3 1 1 1 2 2 2 2 2 4 4 7 12 10 11 7 7 6 4 3
1 8 10 9 7 3 3 6 4 4 5 5 6 6 6 5 1 4 6 4 4 4 4 5 6 6 5 5 4 3 2 3 4 5 2 1 2 2 2 1 1 2 4 5 6 6 7 7 7 7 7 6 5 3
7 6 10 9 5 4 1 4 4 6 5 5 4 3 3 4 4 3 4 4 4 5 6 4 4 2 2 2 2 1 2 2 2 2 1 1 2 2 2 2 3 4 6 6 5 6 8 8 6 5 5 5 4 2
7 11 10 8 6 5 3 5 5 6 6 4 4 3 3 3 4 1 1 2 2 3 2 2 1 1 1 1 2 2 3 2 2 5 5 5 5 5 4 4 4 5 7 7 6 6 7 9 6 5 4 3 2 1
Wind_Direction
186 179 178 175 169 166 155 143 130 107 79 67 52 41 68 119 114 97 82 25 112 99 2 6 7 120 63 75 136 242 45 341 34 65 101 216 128 218 48 238 199 168 131 170 88 60 271 309 51 166 194 53 111 110
191 185 180 175 170 165 158 148 138 123 96 70 52 42 12 60 129 112 96 351 30 77 111 52 82 57 43 184 130 142 168 170 177 101 131 98 140 38 154 263 198 271 184 183 186 213 249 269 285 9 87 114 115 112
193 192 185 176 173 169 164 157 149 137 121 94 76 53 31 24 141 101 117 122 59 95 57 42 351 327 42 13 266 111 265 192 82 116 149 168 150 125 163 244 219 251 176 173 67 251 231 243 73 114 119 110 128 127
194 191 187 178 173 169 166 160 158 149 131 111 110 81 60 57 92 66 86 124 89 108 111 222 344 5 303 340 227 179 143 79 104 77 98 126 143 166 219 207 191 205 130 174 268 263 324 231 203 165 123 124 124 119
193 191 188 178 174 169 167 162 162 160 140 127 120 105 93 90 88 78 64 47 124 125 153 141 1 300 327 356 61 51 71 79 69 57 77 229 189 97 318 4 243 189 179 167 216 212 170 205 183 161 149 164 156 139
194 191 188 184 177 170 167 165 162 173 150 144 135 130 115 117 105 68 28 341 22 99 100 99 266 0 354 57 83 72 71 67 75 132 217 271 275 107 135 236 256 210 204 175 188 142 93 85 95 102 136 143 110 115
191 192 189 185 182 175 169 165 161 173 158 155 146 126 116 96 72 107 179 245 22 83 88 102 8 355 322 334 41 68 60 74 107 90 47 207 337 96 198 233 267 248 211 196 127 113 48 294 181 139 108 94 88 87
187 190 190 186 184 178 171 165 160 165 167 160 134 108 95 92 89 31 17 10 51 89 71 112 73 26 355 121 90 354 68 30 14 116 20 204 343 162 252 235 251 296 43 124 165 22 209 115 90 92 85 115 121 154
186 186 188 185 184 181 171 161 159 160 165 143 121 104 69 43 64 191 355 51 40 116 127 97 137 205 286 85 55 16 86 28 282 135 264 188 261 228 225 206 211 203 184 183 126 92 71 144 160 151 132 148 143 176
185 184 184 184 182 174 164 159 156 157 152 127 61 65 2 174 11 15 9 29 11 339 35 112 351 137 125 78 326 81 47 199 16 255 303 233 257 266 236 222 202 209 183 143 106 122 90 139 174 180 192 177 172 173
184 183 182 180 177 170 162 157 153 153 132 75 102 112 220 351 58 33 58 89 321 358 151 191 164 134 273 118 181 188 196 124 297 263 146 274 269 244 228 216 223 172 173 207 108 154 163 156 176 169 195 195 168 167
183 182 179 176 174 167 161 156 157 131 140 153 122 95 68 46 40 97 224 342 159 219 219 134 188 151 186 103 96 127 150 148 238 291 80 265 252 250 246 250 223 176 182 193 189 205 187 172 170 169 167 173 184 172
180 181 179 175 171 167 163 160 150 125 113 63 58 70 88 296 53 161 190 253 236 174 183 170 138 127 59 63 82 98 112 211 67 138 236 236 269 275 233 225 284 87 184 152 162 167 159 172 151 154 169 197 161 170
177 178 177 174 169 165 163 156 145 139 89 114 143 199 184 208 241 189 179 171 189 129 142 114 100 126 172 71 130 108 241 64 42 304 236 245 237 247 196 171 129 199 191 183 189 176 168 167 179 196 186 159 159 177
173 175 175 174 169 165 162 151 154 114 114 153 121 215 194 216 34 225 160 102 200 141 126 99 64 95 32 99 72 106 59 255 213 230 235 242 249 219 179 178 190 181 177 187 178 180 188 180 185 197 190 150 146 141
168 167 178 171 168 164 155 149 134 79 56 116 120 110 308 74 321 331 233 116 212 144 100 65 118 85 196 136 119 210 143 220 237 220 234 211 231 228 209 192 200 174 179 188 180 182 182 193 198 204 144 172 185 176
166 170 167 169 166 161 146 118 121 146 196 175 243 181 169 96 156 160 160 171 173 148 158 133 125 192 107 74 242 193 207 218 211 229 218 207 186 210 197 187 182 178 184 191 184 197 209 146 130 129 195 204 194 194
171 159 161 163 158 144 153 109 150 181 201 167 156 197 181 138 115 138 155 150 151 172 143 191 126 143 182 182 227 221 220 256 223 215 208 212 212 210 180 190 189 191 193 194 191 166 151 175 199 218 168 156 147 170
161 162 160 161 151 132 130 169 172 169 152 168 141 132 137 148 183 118 140 154 56 124 116 70 119 194 222 219 197 179 176 189 180 205 223 222 191 188 193 171 145 186 192 184 181 207 210 205 213 149 163 163 184 173
160 162 161 157 146 131 131 127 104 117 165 185 101 137 124 125 123 126 149 127 122 134 149 188 215 214 200 216 193 170 172 152 124 76 301 299 226 167 218 194 209 163 168 176 191 151 142 163 189 172 173 178 175 192
150 161 154 146 132 102 118 151 148 147 133 157 140 127 107 103 120 153 158 150 188 210 216 206 226 224 248 279 182 96 125 180 173 163 180 195 228 193 183 212 159 161 184 185 206 209 200 222 178 176 176 191 193 156
151 147 134 142 105 124 115 139 125 145 98 135 127 112 121 149 146 163 132 193 223 226 202 189 223 153 213 252 215 201 199 115 106 101 76 101 123 192 244 203 148 218 208 213 196 211 209 185 170 174 179 165 122 119
140 130 125 130 133 120 118 152 98 143 123 158 136 116 160 156 161 135 193 208 231 229 186 201 242 167 193 217 164 313 183 158 165 181 185 207 219 181 165 183 185 194 224 232 189 185 193 160 165 148 124 129 136 136
107 129 148 146 130 129 144 120 107 111 99 164 157 143 151 141 139 237 230 205 217 124 172 205 204 281 64 60 224 234 178 156 151 147 171 157 212 240 188 227 235 245 186 115 123 109 106 134 135 139 143 146 151 155
131 169 148 133 120 114 117 127 114 106 125 139 106 139 162 136 143 213 224 245 198 201 203 201 207 221 229 234 47 84 21 71 172 201 167 175 113 73 13 3 317 261 179 128 135 125 105 109 116 139 154 160 160 159
130 150 141 146 134 142 164 135 153 145 121 116 99 114 135 129 149 231 202 181 177 178 79 313 240 118 89 30 110 77 21 352 355 157 40 306 162 160 184 182 213 273 176 154 135 141 144 144 152 152 147 142 144 136
135 137 142 68 110 113 87 81 121 110 121 147 163 160 148 163 212 218 36 24 17 10 5 18 18 59 106 116 85 22 324 0 70 109 105 63 56 37 87 162 216 265 143 161 149 148 160 162 158 148 129 111 129 143
128 142 149 152 130 89 113 100 124 157 152 159 130 167 172 183 183 43 8 355 350 337 44 46 35 49 82 83 89 52 24 28 67 73 85 74 56 42 29 14 4 81 104 99 111 103 123 143 141 139 139 139 135 119
125 145 133 136 97 64 84 144 139 128 62 163 121 132 134 53 358 347 344 324 299 337 78 61 23 24 57 60 56 43 25 15 93 107 112 14 7 23 1 21 29 37 66 98 119 117 122 129 133 133 129 128 116 110
143 134 128 131 87 90 296 350 100 114 56 78 107 106 87 71 9 343 3 8 38 58 50 43 350 43 29 66 72 55 31 21 19 83 129 140 225 285 21 53 64 56 66 94 106 109 102 102 104 93 99 106 112 122
28 85 72 56 78 42 103 107 81 70 70 61 35 74 107 131 118 31 24 359 20 43 58 52 46 26 33 29 27 64 33 359 9 6 13 75 130 145 139 94 85 74 75 87 94 106 113 101 107 113 115 117 119 123
38 71 115 104 108 184 53 63 69 61 45 47 56 77 104 91 78 24 1 0 33 49 48 53 60 28 344 345 345 291 311 293 325 319 343 104 101 101 93 74 74 84 89 90 91 99 101 104 108 107 115 125 146 174
78 77 87 106 115 149 182 101 70 90 49 57 48 54 36 62 101 39 25 37 38 27 22 23 10 307 324 0 342 320 322 302 294 118 113 111 111 99 76 69 79 93 99 99 89 99 97 102 99 110 121 130 148 237